sat.trackr.live / text

‹ back to catalog

STARLINK-11464 [DTC]

NORAD 62473 · 2024-254M

PAYLOAD ACTIVE UNKNOWN

§ Identity

Operator
Country
US
Launch date
2024-12-31
Launch site
AFETR
Launch vehicle
Mass (kg)
RCS (m²)

Purposes: comms

External: N2YO · Heavens-Above · Gunter

§ Orbital elements

Epoch: 2026-05-24T06:05:15.510336Z

Period
91.66 min
Inclination
43.0000°
Eccentricity
0.0000941
Mean motion
15.70948619 rev/d
Perigee alt
355.6 km
Apogee alt
356.8 km
Semi-major
6,734.3 km
B*
1.4344e-3
RAAN
127.6673°
Arg perigee
173.5819°
Mean anomaly
186.5061°
Rev number
8,133

§ Raw data

STARLINK-11464 [DTC]1 62473U 24254M   26144.25365174  .00188705  00000+0  14344-2 0  99952 62473  43.0000 127.6673 0000941 173.5819 186.5061 15.70948619 81333

JSON: /api/v1/satellites/62473 · /tle

For live sub-satellite position, see the globe view (requires WebGL).

§ Visibility from observer

Set your observer location to see the next 7 days of passes ≥ 10°. The values pass through the URL so the page stays shareable.

No JS? Fill the form by hand. The geolocation button needs JavaScript.